Location: New York
(40.7127°N, 74.0060°W)
Time: 18:55:13
(UTC-04:00)

VELOX 1 - Pass Details

Date: 03 May 2024
Orbit: 605 x 617 km, 98.3° (Epoch: 27 May)

Event Time Altitude Azimuth Distance (km) Brightness Sun altitude
Rises 22:07:35 0° 356° (N) 2,900 ? -21.5°
Reaches altitude 10° 22:10:20 10° 338° (NNW) 1,989 ? -21.9°
Maximum altitude 22:13:15 18° 295° (WNW) 1,524 ? -22.2°
Drops below altitude 10° 22:16:09 10° 252° (WSW) 1,976 ? -22.6°
Sets 22:18:53 0° 234° (SW) 2,874 ? -22.9°
